Weather in Nhulunbuy

Australia     12°11′29″S   136°46′27″E
temp.,
°C
wind,
m/s
gust,
m/s
humid.,
%
clouds,
%
prec.,
mm/h
press.,
hPa
HPBL,
m
14 may, fri
fri1400:30+26sse69685 0.0 1010704
03:30+26sse69650 0.0 1009599
06:30+26sse610580 0.0 1009618
09:30+29se79520 0.0 10121102
12:30+29se78515 0.0 10101254
15:30+28sse67550 0.0 10081252
18:30+26sse58640 0.0 1010694
21:30+26sse58684 0.0 1012608
15 may, sat
sat1500:30+25sse48715 0.0 1011437
03:30+24sse48715 0.0 1009380
06:30+25sse59685 0.0 1010431
09:30+28se78595 0.0 10121161
12:30+29se676194 0.0 10101386
15:30+28se666410 0.1 10081310
18:30+26sse58695 0.0 1010664
21:30+26sse587118 0.0 1012643
16 may, sun
sun1600:30+26sse68735 0.0 1011662
03:30+25sse587562 0.0 1010548
06:30+25se597380 0.0 1010562
09:30+28se7859100 0.0 10121270
12:30+29se7760100 0.0 10101538
15:30+28sse776172 0.0 10091385
18:30+26se6868100 0.0 1010859
21:30+26se6973100 0.0 1012797
17 may, mon
mon1700:30+25se588176 0.2 1011553
03:30+26se5875100 0.2 1010696
06:30+26se6979100 0.1 1011727
09:30+28se796996 0.3 10121171
12:30+28se7862100 0.1 10111383
15:30+27se6870100 0.3 10091113
18:30+26ese6875100 0.3 1011761
21:30+26se697171 0.4 1013990
18 may, tue
tue1800:30+26se71072100 0.0 1012924
03:30+26se6968100 0.0 1011896
06:30+25se6970100 0.0 1012867
09:30+27se7965100 0.0 10131279
12:30+29se786042 0.0 10101196
15:30+28se6865100 0.0 10091185
18:30+26se697732 0.1 1010745
21:30+26se6108374 0.3 1012709